Beale AFB, CA

10:39 PM PST on November 22, 2017 (GMT -0800)
Beale Air Force Base

Weather History for KBAB - October, 2013

Change the Weather History Date:

Tuesday, October 8, 2013

  Actual Average Record
Temperature  
Mean Temperature 60 °F -  
Max Temperature 74 °F 80 °F 96 °F (1996)
Min Temperature 46 °F 52 °F 46 °F (2007)
Degree Days  
Heating Degree Days 5    
Growing Degree Days 10 (Base 50)    
Moisture  
Dew Point 38 °F    
Average Humidity 49    
Maximum Humidity 78    
Minimum Humidity 25    
Precipitation  
Precipitation 0.00 in - - ()
Sea Level Pressure  
Sea Level Pressure 30.02 in    
Wind  
Wind Speed 7 mph (NW)    
Max Wind Speed 14 mph    
Max Gust Speed -    
Visibility 10 miles    
Events      
Averages and records for this station are not official NWS values.
T = Trace of Precipitation, MM = Missing Value Source: NWS Daily Summary

Daily Weather History Graph

Daily Weather History Graph

Search for Another Location

Airport or City:

Trip Planner

Search our weather history database for the weather conditions in past years. The results will help you decide how hot, cold, wet, or windy it might be!

Date:

Astronomy

Oct. 08, 2013 Rise Set
Actual Time 7:08 AM PDT 6:36 PM PDT
Civil Twilight 6:42 AM PDT 7:03 PM PDT
Nautical Twilight 6:11 AM PDT 7:34 PM PDT
Astronomical Twilight 5:39 AM PDT 8:05 PM PDT
Moon 11:06 AM PDT (10/8) 9:20 PM PDT (10/8)
Length of Visible Light 12h 21m
Length of Day
11h 28m
Waxing Crescent, 17% of the Moon is Illuminated
Oct 8
Waxing Crescent
Oct 11
First Quarter
Oct 18
Full
Oct 26
Last Quarter
Nov 3
New

Hourly Weather History & Observations

Time (PDT) Temp. Windchill Dew Point Humidity Pressure Visibility Wind Dir Wind Speed Gust Speed Precip Events Conditions
12:58 AM 56.8 °F - 37.6 °F 49% 30.08 in 10.0 mi North 5.8 mph - N/A   Clear
1:58 AM 51.4 °F - 39.2 °F 63% 30.08 in 10.0 mi NNW 8.1 mph - N/A   Clear
2:58 AM 52.7 °F - 40.6 °F 64% 30.08 in 9.0 mi NNW 8.1 mph - N/A   Clear
3:08 AM 53.6 °F - 41.0 °F 62% 29.86 in 10.0 mi NNW 8.1 mph - N/A   Clear
3:58 AM 52.2 °F - 40.5 °F 64% 30.08 in 10.0 mi NNW 10.4 mph - N/A   Clear
4:58 AM 49.5 °F - 40.1 °F 70% 30.09 in 10.0 mi NNW 11.5 mph - N/A   Clear
5:58 AM 46.4 °F 41.9 °F 39.9 °F 78% 30.09 in 10.0 mi NW 9.2 mph - N/A   Clear
6:58 AM 47.3 °F - 40.3 °F 77% 30.09 in 10.0 mi North 6.9 mph - N/A   Clear
7:58 AM 48.2 °F - 40.8 °F 76% 30.11 in 10.0 mi NNW 9.2 mph - N/A   Clear
8:58 AM 55.6 °F - 39.4 °F 55% 30.11 in 10.0 mi NNW 9.2 mph - N/A   Clear
9:58 AM 59.5 °F - 38.7 °F 46% 30.11 in 10.0 mi NW 13.8 mph - N/A   Clear
10:58 AM 65.8 °F - 39.6 °F 38% 30.09 in 10.0 mi NNW 12.7 mph - N/A   Clear
11:58 AM 69.8 °F - 38.5 °F 32% 30.07 in 8.0 mi NW 8.1 mph - N/A   Clear
12:58 PM 68.5 °F - 37.4 °F 32% 30.06 in 8.0 mi NW 9.2 mph - N/A   Partly Cloudy
1:58 PM 71.6 °F - 36.5 °F 28% 30.02 in 9.0 mi WNW 8.1 mph - N/A   Partly Cloudy
2:58 PM 73.2 °F - 37.2 °F 27% 29.99 in 10.0 mi WNW 4.6 mph - N/A   Scattered Clouds
3:58 PM 73.9 °F - 36.5 °F 26% 29.97 in 10.0 mi Variable 2.3 mph - N/A   Clear
4:58 PM 74.7 °F - 36.3 °F 25% 29.94 in 10.0 mi SW 2.3 mph - N/A   Clear
5:58 PM 72.3 °F - 34.9 °F 25% 29.94 in 10.0 mi WNW 3.5 mph - N/A   Clear
6:58 PM 63.9 °F - 37.8 °F 38% 29.94 in 8.0 mi WNW 2.3 mph - N/A   Clear
7:58 PM 57.9 °F - 36.5 °F 45% 29.93 in 10.0 mi ESE 3.5 mph - N/A   Clear
8:58 PM 58.8 °F - 36.9 °F 44% 29.91 in 10.0 mi East 6.9 mph - N/A   Clear
9:59 PM 53.6 °F - 37.4 °F 54% - 7.0 mi Calm Calm - N/A   Clear
10:58 PM 51.8 °F - 36.1 °F 55% 29.88 in 10.0 mi SSW 2.3 mph - N/A   Clear
11:58 PM 49.8 °F - 36.7 °F 61% 29.86 in 10.0 mi SE 2.3 mph - N/A   Partly Cloudy